Preview of NWS' New Version of Forecast
This preview is not operational and should not be used for support decisions.

Regional Weather Roundup (RWR)

Issued by National Weather Service (NWS)

                            
000
ASUS46 KPQR 201010
RWROR 

OREGON REGIONAL WEATHER ROUNDUP
NATIONAL WEATHER SERVICE PORTLAND OR
300 AM PDT SAT APR 20 2019

NOTE: "FAIR" INDICATES FEW OR NO CLOUDS BELOW 12,000 FEET WITH
NO SIGNIFICANT WEATHER AND/OR OBSTRUCTIONS TO VISIBILITY.

ORZ001>013-201100-
NORTHWEST OREGON

  
CITY           SKY/WX    TMP DP  RH WIND       PRES   REMARKS
ASTORIA        CLOUDY    50  42  74 NW8       30.01S                  
TILLAMOOK      CLOUDY    50  45  81 W10       30.01F                  
NEWPORT        CLOUDY    50  48  93 N16G23    30.03S                  
PORTLAND       CLOUDY    52  46  80 NW10      29.96F                  
VANCOUVER WA   CLOUDY    51  45  79 NW7       29.96F                  
SCAPPOOSE      CLOUDY    53  46  77 CALM      29.96F                  
HILLSBORO      CLOUDY    50  45  83 NW7       29.96F                  
AURORA         CLOUDY    51  47  86 NW3       29.97F                  
MCMINNVILLE    CLOUDY    51  49  92 N3        29.96F                  
SALEM          CLOUDY    51  48  89 N8        29.95F                  
CORVALLIS      CLOUDY    51  49  92 NW7       29.97F                  
EUGENE         LGT RAIN  51  50  96 NW6       29.96S                  
$$

ORZ021-028-201100-
SOUTHWEST OREGON

  
CITY           SKY/WX    TMP DP  RH WIND       PRES   REMARKS
NORTH BEND     LGT RAIN  51  48  89 N16       30.01F                  
BROOKINGS      LGT RAIN  51  50  96 NW3       29.94F                  
ROSEBURG       LGT RAIN  53  50  89 N6        29.94F FOG              
SEXTON SUMMIT  FOG       42  42 100 NW8       29.89F VSB 1/2          
GRANTS PASS    CLOUDY    54  48  82 NW9       29.92S                  
MEDFORD        LGT RAIN  54  51  90 NW9       29.87F                  
$$

ORZ014>016-041-201100-
COLUMBIA GORGE

  
CITY           SKY/WX    TMP DP  RH WIND       PRES   REMARKS
TROUTDALE      CLOUDY    51  47  86 W5        29.96S                  
HOOD RIVER     CLOUDY    52  46  82 MISG      29.90F                  
THE DALLES     MOCLDY    54  47  77 NW13      29.87F                  
$$

ORZ029>031-041-044-049-050-061>064-502-503-505>511-201100-
EASTERN OREGON

  
CITY           SKY/WX    TMP DP  RH WIND       PRES   REMARKS
MADRAS         LGT RAIN  46  45  93 CALM      29.91F                  
REDMOND        LGT RAIN  48  45  89 CALM      29.88F                  
BEND           DRIZZLE   46  45  93 NE5       29.88F                  
PRINEVILLE     LGT RAIN  46  45  93 NW7       29.89F                  
KLAMATH FALLS  CLOUDY    50  46  86 NW3       29.86F                  
LAKEVIEW       MOCLDY    49  46  90 SW5       29.86F                  
HERMISTON      CLOUDY    56  50  80 SW6       29.84F                  
PENDLETON      LGT RAIN  53  50  89 S6        29.86S                  
JOHN DAY       CLOUDY    48  47  97 W10       29.87S                  
MEACHAM        LGT RAIN  45  43  93 CALM      29.86F                  
LA GRANDE      LGT RAIN  51  44  77 W13       29.85F                  
BAKER CITY     LGT RAIN  50  44  80 NW6       29.84S                  
BURNS          MOCLDY    50  46  86 W8        29.83S                  
ROME             N/A     56  32  40 N8        29.80S                  
ONTARIO        FAIR      62  48  60 W15G25    29.75R                  
$$